Ashtabula, OH

7:03 PM EST on December 15, 2017 (GMT -0500)
Ashtabula County

Weather History for KHZY - March, 2013

Change the Weather History Date:

Sunday, March 24, 2013

  Actual Average (KGKJ) Record (KGKJ)
Temperature  
Mean Temperature 24 °F -  
Max Temperature 34 °F 47 °F 76 °F (1966)
Min Temperature 14 °F 24 °F 9 °F (1992)
Degree Days  
Heating Degree Days 42    
Moisture  
Dew Point 17 °F    
Average Humidity 71    
Maximum Humidity 89    
Minimum Humidity 48    
Precipitation  
Precipitation 0.00 in - - ()
Sea Level Pressure  
Sea Level Pressure 29.89 in    
Wind  
Wind Speed 3 mph (ENE)    
Max Wind Speed 12 mph    
Max Gust Speed 22 mph    
Visibility 10 miles    
Events      
Averages and records for this station are not official NWS values.
T = Trace of Precipitation, MM = Missing Value Source: NWS Daily Summary

Daily Weather History Graph

Daily Weather History Graph

Search for Another Location

Airport or City:

Trip Planner

Search our weather history database for the weather conditions in past years. The results will help you decide how hot, cold, wet, or windy it might be!

Date:

Astronomy

Mar. 24, 2013 Rise Set
Actual Time 7:18 AM EDT 7:39 PM EDT
Civil Twilight 6:51 AM EDT 8:07 PM EDT
Nautical Twilight 6:18 AM EDT 8:40 PM EDT
Astronomical Twilight 5:44 AM EDT 9:13 PM EDT
Moon 5:04 PM EDT (3/24) 5:30 AM EDT (3/24)
Length of Visible Light 13h 16m
Length of Day
12h 20m
Waxing Gibbous, 91% of the Moon is Illuminated
Mar 24
Waxing Gibbous
Mar 27
Full
Apr 3
Last Quarter
Apr 10
New
Apr 18
First Quarter

Hourly Weather History & Observations

Time (EDT) Temp. Windchill Dew Point Humidity Pressure Visibility Wind Dir Wind Speed Gust Speed Precip Events Conditions
12:07 AM 21.2 °F - 15.8 °F 80% 30.05 in 10.0 mi Calm Calm - N/A   Mostly Cloudy
12:19 AM 21.2 °F - 15.8 °F 80% 30.04 in 10.0 mi Calm Calm - N/A   Scattered Clouds
12:26 AM 21.2 °F - 15.8 °F 80% 30.04 in 10.0 mi Calm Calm - N/A   Mostly Cloudy
12:36 AM 21.2 °F - 15.8 °F 80% 30.03 in 10.0 mi Calm Calm - N/A   Partly Cloudy
12:53 AM 19.9 °F 13.4 °F 16.0 °F 85% 30.05 in 8.0 mi NE 4.6 mph - N/A   Clear
1:53 AM 24.1 °F - 19.0 °F 81% 30.00 in 10.0 mi Calm Calm - N/A   Clear
2:53 AM 19.0 °F - 14.0 °F 81% 30.03 in 10.0 mi Calm Calm - N/A   Clear
3:53 AM 17.1 °F - 12.0 °F 81% 30.02 in 10.0 mi Calm Calm - N/A   Clear
4:53 AM 15.1 °F - 10.9 °F 84% 30.04 in 10.0 mi Calm Calm - N/A   Clear
5:53 AM 16.0 °F 10.4 °F 12.0 °F 84% 30.02 in 9.0 mi East 3.5 mph - N/A   Clear
6:53 AM 16.0 °F 8.8 °F 10.9 °F 81% 30.01 in 10.0 mi East 4.6 mph - N/A   Clear
7:53 AM 14.0 °F - 10.0 °F 84% 30.02 in 10.0 mi Calm Calm - N/A   Clear
8:53 AM 19.9 °F - 17.1 °F 89% 30.01 in 10.0 mi Calm Calm - N/A   Clear
9:53 AM 28.0 °F 22.8 °F 21.0 °F 75% 29.99 in 10.0 mi East 4.6 mph - N/A   Clear
10:53 AM 28.9 °F 21.1 °F 19.9 °F 69% 29.94 in 10.0 mi East 8.1 mph - N/A   Clear
11:53 AM 30.9 °F 22.2 °F 19.9 °F 64% 29.92 in 10.0 mi East 10.4 mph - N/A   Clear
12:53 PM 33.1 °F 25.5 °F 17.1 °F 52% 29.87 in 10.0 mi ENE 9.2 mph - N/A   Clear
1:53 PM 33.1 °F 24.4 °F 18.0 °F 54% 29.82 in 10.0 mi NNE 11.5 mph 21.9 mph N/A   Clear
2:53 PM 33.1 °F 26.1 °F 15.1 °F 48% 29.81 in 10.0 mi NE 8.1 mph 18.4 mph N/A   Clear
3:53 PM 32.0 °F 25.6 °F 17.1 °F 54% 29.77 in 10.0 mi NE 6.9 mph - N/A   Partly Cloudy
4:53 PM 33.1 °F 26.9 °F 18.0 °F 54% 29.75 in 10.0 mi NE 6.9 mph - N/A   Partly Cloudy
5:53 PM 33.1 °F 25.5 °F 19.0 °F 56% 29.71 in 10.0 mi ENE 9.2 mph - N/A   Overcast
6:53 PM 32.0 °F 23.6 °F 19.9 °F 61% 29.68 in 10.0 mi NE 10.4 mph - N/A   Clear
7:53 PM 32.0 °F 24.8 °F 21.0 °F 64% 29.68 in 10.0 mi NE 8.1 mph 16.1 mph N/A   Overcast
8:53 PM 32.0 °F 23.6 °F 21.0 °F 64% 29.67 in 10.0 mi NE 10.4 mph 17.3 mph N/A   Overcast
9:53 PM 32.0 °F 25.6 °F 23.0 °F 69% 29.64 in 10.0 mi NE 6.9 mph - N/A   Overcast
10:53 PM 32.0 °F 25.6 °F 21.9 °F 66% 29.61 in 10.0 mi ENE 6.9 mph - N/A   Overcast
11:53 PM 32.0 °F 25.6 °F 21.9 °F 66% 29.59 in 10.0 mi NE 6.9 mph - N/A   Overcast